"Period start","avg(HW err(1)/warn(2) (#))","avg(Visibility (m))","avg(Weather code (#))","avg(Precip intensity (mm/h))","min(HW err(1)/warn(2) (#))","max(HW err(1)/warn(2) (#))","std(HW err(1)/warn(2) (#))","med(HW err(1)/warn(2) (#))","min(Visibility (m))","max(Visibility (m))","std(Visibility (m))","med(Visibility (m))","min(Weather code (#))","max(Weather code (#))","std(Weather code (#))","med(Weather code (#))","min(Precip intensity (mm/h))","max(Precip intensity (mm/h))","std(Precip intensity (mm/h))","med(Precip intensity (mm/h))"
2017-04-28 00:00:00,2,9939,41,0.06,2,2,0,2,8978,10786,631,9847,41,41,0,41,0.00,0.15,0.04,0.05
2017-04-28 00:10:00,2,9144,26,0.04,2,2,0,2,8108,10022,579,8964,10,41,16,26,0.00,0.10,0.05,0.00
2017-04-28 00:20:00,2,7233,59,0.20,2,2,0,2,5069,10192,1456,7241,10,71,20,71,0.00,0.65,0.23,0.12
2017-04-28 00:30:00,2,5122,71,0.35,2,2,0,2,4715,5655,283,5201,71,71,0,71,0.10,0.70,0.16,0.30
2017-04-28 00:40:00,2,4402,71,0.36,2,2,0,2,3722,4869,368,4348,71,71,0,71,0.05,0.75,0.20,0.38
2017-04-28 00:50:00,2,3131,71,0.87,2,2,0,2,2614,3931,428,3022,71,71,0,71,0.50,1.30,0.24,0.85
2017-04-28 01:00:00,2,3315,71,0.55,2,2,0,2,2817,3833,379,3293,71,71,0,71,0.20,1.35,0.32,0.47
2017-04-28 01:10:00,2,3592,71,0.29,2,2,0,2,2851,4207,421,3726,71,71,0,71,0.15,0.50,0.10,0.25
2017-04-28 01:20:00,2,4181,73,0.12,2,2,0,2,3068,5544,668,4114,71,77,3,71,0.05,0.25,0.07,0.10
2017-04-28 01:30:00,2,3803,77,0.14,2,2,0,2,3085,5113,633,3616,77,77,0,77,0.05,0.25,0.06,0.15
2017-04-28 01:40:00,2,5098,75,0.08,2,2,0,2,3820,6344,722,4920,71,77,3,77,0.05,0.15,0.04,0.08
2017-04-28 01:50:00,2,5466,74,0.08,2,2,0,2,4774,7194,686,5246,71,77,3,74,0.00,0.15,0.04,0.10
2017-04-28 02:00:00,2,4887,77,0.10,2,2,0,2,4055,5438,420,4968,77,77,0,77,0.05,0.20,0.04,0.10
2017-04-28 02:10:00,2,4370,74,0.11,2,2,0,2,2886,5638,815,4498,71,77,3,74,0.00,0.40,0.10,0.10
2017-04-28 02:20:00,2,3720,71,0.24,2,2,0,2,2835,4915,631,3550,71,71,0,71,0.05,0.85,0.23,0.17
2017-04-28 02:30:00,2,3756,74,0.11,2,2,0,2,3188,4267,291,3706,71,77,3,74,0.05,0.20,0.06,0.10
2017-04-28 02:40:00,2,4332,76,0.14,2,2,0,2,3317,5562,705,4188,71,77,2,77,0.10,0.20,0.04,0.12
2017-04-28 02:50:00,2,4502,77,0.10,2,2,0,2,3129,6470,862,4530,77,77,0,77,0.05,0.25,0.07,0.08
2017-04-28 03:00:00,2,5341,76,0.08,2,2,0,2,4047,5992,566,5367,71,77,2,77,0.05,0.15,0.04,0.05
2017-04-28 03:10:00,2,5193,76,0.06,2,2,0,2,3894,6280,865,5377,71,77,2,77,0.00,0.10,0.03,0.05
2017-04-28 03:20:00,2,6264,75,0.09,2,2,0,2,5323,7728,807,5962,71,77,3,77,0.00,0.25,0.07,0.05
2017-04-28 03:30:00,2,5130,71,0.27,2,2,0,2,3947,6061,702,5098,71,71,0,71,0.05,0.55,0.19,0.23
2017-04-28 03:40:00,2,5179,71,0.24,2,2,0,2,4368,6096,465,5230,71,71,0,71,0.10,0.50,0.13,0.17
2017-04-28 03:50:00,2,5353,71,0.17,2,2,0,2,4655,5899,453,5484,71,71,0,71,0.00,0.55,0.15,0.15
2017-04-28 04:00:00,2,6153,75,0.02,2,2,0,2,5411,7624,690,6055,71,77,3,77,0.00,0.05,0.02,0.00
2017-04-28 04:10:00,2,6519,19,0.00,2,2,0,2,4606,7933,965,6544,10,41,14,10,0.00,0.00,0.00,0.00
2017-04-28 04:20:00,2,5375,10,0.00,2,2,0,2,4090,7029,757,5262,10,10,0,10,0.00,0.00,0.00,0.00
2017-04-28 04:30:00,2,5177,10,0.00,2,2,0,2,4503,6807,647,4948,10,10,0,10,0.00,0.00,0.00,0.00
2017-04-28 04:40:00,2,5021,10,0.00,2,2,0,2,4601,5558,350,4844,10,10,0,10,0.00,0.00,0.00,0.00
2017-04-28 04:50:00,2,5094,10,0.00,2,2,0,2,4286,6244,600,5020,10,10,0,10,0.00,0.00,0.00,0.00
2017-04-28 05:00:00,2,4579,17,0.01,2,2,0,2,3937,5630,553,4429,10,71,19,10,0.00,0.05,0.02,0.00
2017-04-28 05:10:00,2,4568,75,0.02,2,2,0,2,3657,5668,692,4496,71,77,3,77,0.00,0.05,0.02,0.00
2017-04-28 05:20:00,2,4721,71,0.12,2,2,0,2,3679,5333,515,4842,71,71,0,71,0.00,0.35,0.10,0.08
2017-04-28 05:30:00,2,4673,71,0.11,2,2,0,2,3723,5371,529,4679,71,71,0,71,0.00,0.25,0.08,0.10
2017-04-28 05:40:00,2,4361,71,0.18,2,2,0,2,3640,4996,458,4468,71,71,0,71,0.00,0.45,0.16,0.10
2017-04-28 05:50:00,2,4611,71,0.28,2,2,0,2,3892,5084,381,4698,71,71,0,71,0.10,0.50,0.11,0.25
2017-04-28 06:00:00,2,4748,71,0.21,2,2,0,2,3374,5794,704,4738,71,71,0,71,0.10,0.50,0.13,0.17
2017-04-28 06:10:00,2,4533,71,0.39,2,2,0,2,4045,5673,418,4389,71,71,0,71,0.05,0.70,0.24,0.50
2017-04-28 06:20:00,2,4308,71,0.70,2,2,0,2,3760,4719,329,4416,71,71,0,71,0.25,1.40,0.36,0.65
2017-04-28 06:30:00,2,4138,71,0.76,2,2,0,2,3108,4724,497,4198,71,71,0,71,0.20,1.60,0.47,0.62
2017-04-28 06:40:00,2,4004,71,0.87,2,2,0,2,3317,4791,505,3945,71,71,0,71,0.40,1.45,0.28,0.88
2017-04-28 06:50:00,2,3477,71,0.80,2,2,0,2,3151,3826,254,3424,71,71,0,71,0.65,1.10,0.14,0.73
2017-04-28 07:00:00,2,4054,71,0.49,2,2,0,2,3557,4497,293,3966,71,71,0,71,0.30,0.95,0.17,0.45
2017-04-28 07:10:00,2,4375,71,0.42,2,2,0,2,3627,4964,510,4570,71,71,0,71,0.10,0.80,0.21,0.47
2017-04-28 07:20:00,2,4876,71,0.27,2,2,0,2,3813,6284,658,4913,71,71,0,71,0.10,0.50,0.11,0.25
2017-04-28 07:30:00,2,4860,74,0.14,2,2,0,2,3618,5964,729,4848,71,78,3,74,0.05,0.25,0.06,0.15
2017-04-28 07:40:00,2,3580,76,0.25,2,2,0,2,2914,4885,589,3572,71,78,3,77,0.15,0.45,0.09,0.25
2017-04-28 07:50:00,2,4064,74,0.15,2,2,0,2,3467,4940,466,3996,71,77,3,74,0.05,0.35,0.09,0.15
2017-04-28 08:00:00,2,3954,71,0.38,2,2,0,2,3313,4991,465,3840,71,71,0,71,0.20,0.70,0.17,0.30
2017-04-28 08:10:00,2,3558,71,0.34,2,2,0,2,3023,4215,356,3512,71,71,0,71,0.10,0.70,0.19,0.33
2017-04-28 08:20:00,2,3733,76,0.33,2,2,0,2,3242,4721,428,3620,71,77,2,77,0.15,0.50,0.10,0.35
2017-04-28 08:30:00,2,4155,72,0.26,2,2,0,2,2697,5241,815,4340,71,77,2,71,0.10,0.55,0.14,0.20
2017-04-28 08:40:00,2,3300,71,0.58,2,2,0,2,2662,4019,392,3368,71,71,0,71,0.20,1.00,0.23,0.62
2017-04-28 08:50:00,2,3296,71,0.75,2,2,0,2,2430,3821,400,3384,71,71,0,71,0.35,1.35,0.33,0.65
2017-04-28 09:00:00,2,3014,71,1.19,2,2,0,2,2360,3562,367,3082,71,71,0,71,0.55,1.95,0.40,1.27
2017-04-28 09:10:00,2,3126,71,1.35,2,2,0,2,2631,4318,509,2927,71,71,0,71,0.35,1.95,0.44,1.38
2017-04-28 09:20:00,2,3794,71,0.84,2,2,0,2,3116,4747,440,3844,71,71,0,71,0.35,1.25,0.25,0.82
2017-04-28 09:30:00,2,3816,71,0.77,2,2,0,2,3184,4663,397,3789,71,71,0,71,0.40,1.15,0.24,0.78
2017-04-28 09:40:00,2,5701,71,0.30,2,2,0,2,4548,8093,979,5436,71,71,0,71,0.05,0.80,0.22,0.22
2017-04-28 09:50:00,2,6860,71,0.10,2,2,0,2,4994,8605,1235,6728,71,71,0,71,0.00,0.20,0.06,0.10
2017-04-28 10:00:00,2,6969,76,0.04,2,2,0,2,5375,7916,709,6986,71,77,2,77,0.00,0.10,0.03,0.05
2017-04-28 10:10:00,2,5613,77,0.08,2,2,0,2,4572,6730,742,5649,77,78,0,77,0.05,0.15,0.04,0.08
2017-04-28 10:20:00,2,6318,78,0.04,2,2,0,2,5163,7503,748,6334,78,78,0,78,0.00,0.15,0.04,0.05
2017-04-28 10:30:00,2,5950,78,0.10,2,2,0,2,4770,7230,793,5981,78,78,0,78,0.05,0.20,0.05,0.10
2017-04-28 10:40:00,2,5975,76,0.07,2,2,0,2,5232,6552,401,5948,71,78,3,78,0.05,0.10,0.03,0.08
2017-04-28 10:50:00,2,6525,78,0.07,2,2,0,2,5626,7874,613,6402,77,78,0,78,0.00,0.20,0.06,0.05
2017-04-28 11:00:00,2,6205,75,0.11,2,2,0,2,5455,7036,474,6234,71,78,3,77,0.05,0.25,0.06,0.10
2017-04-28 11:10:00,2,5836,73,0.12,2,2,0,2,4694,6847,577,5945,71,77,3,71,0.05,0.20,0.06,0.10
2017-04-28 11:20:00,2,5633,76,0.19,2,2,0,2,4745,6464,568,5746,71,78,3,77,0.05,0.45,0.10,0.20
2017-04-28 11:30:00,2,5614,71,0.34,2,2,0,2,4727,6488,536,5524,71,71,0,71,0.10,0.60,0.16,0.30
2017-04-28 11:40:00,2,5104,71,0.40,2,2,0,2,3862,6151,761,5085,71,71,0,71,0.15,0.70,0.21,0.35
2017-04-28 11:50:00,2,5554,72,0.22,2,2,0,2,3904,6802,921,5219,71,77,2,71,0.05,0.40,0.13,0.25
2017-04-28 12:00:00,2,5594,78,0.11,2,2,0,2,4403,7204,805,5512,77,78,0,78,0.05,0.25,0.06,0.10
2017-04-28 12:10:00,2,7588,78,0.03,2,2,0,2,6244,9029,855,7434,78,78,0,78,0.00,0.10,0.03,0.03
2017-04-28 12:20:00,2,7092,78,0.03,2,2,0,2,6215,8256,564,7040,77,78,0,78,0.00,0.10,0.03,0.03
2017-04-28 12:30:00,2,6163,78,0.03,2,2,0,2,5141,7243,631,6038,78,78,0,78,0.00,0.10,0.03,0.03
2017-04-28 12:40:00,2,4668,76,0.12,2,2,0,2,3893,5489,523,4746,71,78,3,78,0.05,0.20,0.06,0.10
2017-04-28 12:50:00,2,4807,78,0.09,2,2,0,2,3596,5500,608,4976,77,78,0,78,0.00,0.20,0.06,0.08
2017-04-28 13:00:00,2,5599,78,0.04,2,2,0,2,4727,7090,702,5466,78,78,0,78,0.00,0.05,0.02,0.05
2017-04-28 13:10:00,2,4473,78,0.06,2,2,0,2,3739,5156,404,4534,78,78,0,78,0.05,0.10,0.02,0.05
2017-04-28 13:20:00,2,5453,78,0.05,2,2,0,2,4438,6109,500,5425,77,78,0,78,0.00,0.10,0.03,0.05
2017-04-28 13:30:00,2,5956,76,0.04,2,2,0,2,4650,7592,936,5608,71,78,3,78,0.00,0.10,0.04,0.05
2017-04-28 13:40:00,2,8011,75,0.02,2,2,0,2,7502,8863,401,7934,71,77,3,77,0.00,0.05,0.02,0.00
2017-04-28 13:50:00,2,8594,74,0.02,2,2,0,2,7377,9746,688,8758,71,78,4,74,0.00,0.05,0.02,0.00
2017-04-28 14:00:00,2,7858,72,0.02,2,2,0,2,6487,8775,766,7993,71,77,2,71,0.00,0.05,0.02,0.00
2017-04-28 14:10:00,2,7664,78,0.02,2,2,0,2,6959,8387,442,7690,77,78,0,78,0.00,0.15,0.05,0.00
2017-04-28 14:20:00,2,7519,75,0.03,2,2,0,2,6987,8335,403,7474,71,78,3,78,0.00,0.15,0.05,0.00
2017-04-28 14:30:00,2,7425,76,0.01,2,2,0,2,6970,8112,419,7270,71,78,3,78,0.00,0.05,0.02,0.00
2017-04-28 14:40:00,2,7668,78,0.01,2,2,0,2,6253,9437,943,7540,78,78,0,78,0.00,0.05,0.02,0.00
2017-04-28 14:50:00,2,7636,78,0.03,2,2,0,2,6665,9349,718,7559,77,78,0,78,0.00,0.10,0.04,0.00
2017-04-28 15:00:00,2,6689,71,0.08,2,2,0,2,6037,7527,471,6710,71,71,0,71,0.05,0.20,0.06,0.05
2017-04-28 15:10:00,2,6769,76,0.02,2,2,0,2,6041,7841,460,6785,71,78,3,78,0.00,0.05,0.02,0.00
2017-04-28 15:20:00,2,7088,78,0.02,2,2,0,2,6479,7692,411,7106,78,78,0,78,0.00,0.05,0.02,0.00
2017-04-28 15:30:00,2,6385,78,0.03,2,2,0,2,5466,7155,461,6386,77,78,0,78,0.00,0.05,0.03,0.03
2017-04-28 15:40:00,2,5970,77,0.05,2,2,0,2,5207,6574,390,5951,77,78,0,77,0.00,0.10,0.04,0.05
2017-04-28 15:50:00,2,6051,78,0.03,2,2,0,2,5039,6701,515,6068,77,78,0,78,0.00,0.10,0.03,0.03
2017-04-28 16:00:00,2,6359,76,0.04,2,2,0,2,5782,7510,480,6390,71,78,3,77,0.00,0.10,0.03,0.05
2017-04-28 16:10:00,2,6575,74,0.08,2,2,0,2,5495,7357,533,6525,71,78,3,71,0.00,0.20,0.06,0.05
2017-04-28 16:20:00,2,7658,71,0.05,2,2,0,2,6352,9345,801,7476,71,71,0,71,0.00,0.20,0.05,0.05
2017-04-28 16:30:00,2,7277,76,0.12,2,2,0,2,6423,8233,451,7377,71,77,2,77,0.00,0.70,0.19,0.05
2017-04-28 16:40:00,2,7779,71,0.14,2,2,0,2,6832,9200,696,7600,71,71,0,71,0.05,0.40,0.10,0.12
2017-04-28 16:50:00,2,6804,71,0.15,2,2,0,2,5759,8674,855,6673,71,71,0,71,0.05,0.30,0.09,0.15
2017-04-28 17:00:00,2,6784,71,0.11,2,2,0,2,5279,8323,990,6826,71,71,0,71,0.00,0.30,0.08,0.10
2017-04-28 17:10:00,2,6999,76,0.07,2,2,0,2,6300,8518,609,6922,71,78,3,77,0.00,0.15,0.04,0.05
2017-04-28 17:20:00,2,6324,76,0.05,2,2,0,2,5633,7521,603,6222,71,78,3,78,0.00,0.10,0.02,0.05
2017-04-28 17:30:00,2,6642,78,0.04,2,2,0,2,5510,8232,802,6656,78,78,0,78,0.00,0.05,0.02,0.05
2017-04-28 17:40:00,2,6401,78,0.06,2,2,0,2,5574,6875,385,6446,77,78,0,78,0.00,0.10,0.03,0.05
2017-04-28 17:50:00,2,7301,78,0.03,2,2,0,2,6030,8178,591,7466,77,78,0,78,0.00,0.10,0.03,0.03
2017-04-28 18:00:00,2,8030,77,0.03,2,2,0,2,7277,8691,486,8087,77,78,0,77,0.00,0.05,0.02,0.05
2017-04-28 18:10:00,2,7594,76,0.02,2,2,0,2,6921,8253,454,7760,71,78,3,78,0.00,0.05,0.02,0.00
2017-04-28 18:20:00,2,8031,78,0.01,2,2,0,2,6813,9403,807,7966,78,78,0,78,0.00,0.05,0.02,0.00
2017-04-28 18:30:00,2,7188,78,0.06,2,2,0,2,5953,7800,552,7183,78,78,0,78,0.00,0.15,0.06,0.05
2017-04-28 18:40:00,2,7317,73,0.08,2,2,0,2,6588,8144,453,7204,71,77,3,71,0.05,0.20,0.05,0.05
2017-04-28 18:50:00,2,5799,72,0.13,2,2,0,2,4408,7806,1027,5561,71,77,2,71,0.00,0.40,0.12,0.08
2017-04-28 19:00:00,2,4863,75,0.12,2,2,0,2,3955,6479,738,4809,71,77,3,77,0.00,0.30,0.08,0.12
2017-04-28 19:10:00,2,5571,75,0.07,2,2,0,2,4397,6764,719,5491,71,78,3,77,0.00,0.20,0.06,0.05
2017-04-28 19:20:00,2,5793,78,0.01,2,2,0,2,5210,6345,371,5756,78,78,0,78,0.00,0.05,0.02,0.00
2017-04-28 19:30:00,2,6059,78,0.00,2,2,0,2,4956,6636,548,6268,78,78,0,78,0.00,0.00,0.00,0.00
2017-04-28 19:40:00,2,6533,78,0.00,2,2,0,2,5946,7210,393,6462,78,78,0,78,0.00,0.00,0.00,0.00
2017-04-28 19:50:00,2,6274,78,0.00,2,2,0,2,5936,6832,283,6169,78,78,0,78,0.00,0.00,0.00,0.00
2017-04-28 20:00:00,2,5601,78,0.00,2,2,0,2,4971,6543,478,5595,78,78,0,78,0.00,0.00,0.00,0.00
2017-04-28 20:10:00,2,6590,78,0.00,2,2,0,2,5808,7159,456,6664,78,78,0,78,0.00,0.00,0.00,0.00
2017-04-28 20:20:00,2,6396,78,0.00,2,2,0,2,5704,7165,416,6449,78,78,0,78,0.00,0.00,0.00,0.00
2017-04-28 20:30:00,2,8031,30,0.00,2,2,0,2,6788,9167,671,8114,10,78,31,10,0.00,0.00,0.00,0.00
2017-04-28 20:40:00,2,7784,10,0.00,2,2,0,2,6199,9471,985,7735,10,10,0,10,0.00,0.00,0.00,0.00
2017-04-28 20:50:00,2,7992,67,0.01,2,2,0,2,6273,8840,715,8162,10,77,19,71,0.00,0.05,0.02,0.00
2017-04-28 21:00:00,2,7544,77,0.01,2,2,0,2,6043,8822,922,7387,71,78,2,78,0.00,0.05,0.02,0.00
2017-04-28 21:10:00,2,7914,74,0.01,2,2,0,2,6336,12674,1999,7279,71,77,3,74,0.00,0.05,0.02,0.00
2017-04-28 21:20:00,2,6657,76,0.04,2,2,0,2,5516,8594,832,6406,71,77,2,77,0.00,0.10,0.04,0.05
2017-04-28 21:30:00,2,6388,71,0.12,2,2,0,2,5854,7315,472,6274,71,71,0,71,0.05,0.25,0.07,0.10
2017-04-28 21:40:00,2,7062,71,0.09,2,2,0,2,5183,9607,1342,7063,71,71,0,71,0.00,0.20,0.06,0.05
2017-04-28 21:50:00,2,7064,73,0.01,2,2,0,2,6012,8518,714,6944,71,78,3,71,0.00,0.05,0.02,0.00
2017-04-28 22:00:00,2,7011,73,0.04,2,2,0,2,6004,8903,880,6772,71,78,3,71,0.00,0.10,0.04,0.03
2017-04-28 22:10:00,2,7390,71,0.12,2,2,0,2,5523,9247,1309,7264,71,71,0,71,0.00,0.40,0.13,0.05
2017-04-28 22:20:00,2,6865,71,0.02,2,2,0,2,5554,8122,887,6868,71,71,0,71,0.00,0.10,0.03,0.00
2017-04-28 22:30:00,2,7978,48,0.02,2,2,0,2,5497,12015,1855,7936,10,77,31,71,0.00,0.05,0.02,0.00
2017-04-28 22:40:00,2,6656,10,0.00,2,2,0,2,4104,8831,1326,6432,10,10,0,10,0.00,0.00,0.00,0.00
2017-04-28 22:50:00,2,6268,65,0.04,2,2,0,2,4960,7771,874,6092,10,71,18,71,0.00,0.15,0.05,0.03
2017-04-28 23:00:00,2,5538,16,0.00,2,2,0,2,4381,7403,957,5304,10,71,18,10,0.00,0.00,0.00,0.00
2017-04-28 23:10:00,2,6736,65,0.04,2,2,0,2,4399,10080,1526,6486,10,71,18,71,0.00,0.10,0.03,0.05
2017-04-28 23:20:00,2,5563,71,0.07,2,2,0,2,3687,8657,1263,5503,71,71,0,71,0.00,0.25,0.07,0.05
2017-04-28 23:30:00,2,4631,22,0.00,2,2,0,2,3522,5607,675,4804,10,71,24,10,0.00,0.00,0.00,0.00
2017-04-28 23:40:00,2,6358,10,0.00,2,2,0,2,3752,13469,2516,5635,10,10,0,10,0.00,0.00,0.00,0.00
2017-04-28 23:50:00,2,5421,10,0.00,2,2,0,2,3491,8320,1520,4917,10,10,0,10,0.00,0.00,0.00,0.00
